Simultaneous Nadir Overpasses (SNOs) Predictions

Prediction of SNOs between METOP-A and NOAA-19 Satellite Orbit:

Table of predicted SNOs for the next 14.0 days since TLE Epoch: 1/2/2021
Index Date (METOP-A) Time (METOP-A) Lat,Lon (METOP-A) SZA (METOP-A ) Date (NOAA-19) Time (NOAA-19) Lat,Lon (NOAA-19) SZA (NOAA-19 ) Distance(km) Time Diff (sec)
1 01/09/2021 16:20:04 80.83, -52.41 102.93 01/09/2021 16:18:54 80.82, -52.58 102.91 3.15 70
2 01/09/2021 17:10:46 -80.81, 114.71 77.10 01/09/2021 17:09:50 -80.82, 114.70 77.10 0.72 56
3 01/09/2021 18:01:26 80.82, -77.89 102.90 01/09/2021 18:00:54 80.82, -77.91 102.90 0.38 32
4 01/09/2021 18:52:08 -80.80, 89.23 77.13 01/09/2021 18:51:50 -80.81, 89.37 77.11 2.92 18
5 01/09/2021 19:42:48 80.81,-103.37 102.88 01/09/2021 19:42:54 80.81,-103.24 102.89 2.40 6
6 01/09/2021 20:33:29 -80.82, 64.09 77.12 01/09/2021 20:33:50 -80.81, 64.03 77.12 1.05 21
7 01/09/2021 21:24:08 80.82,-128.51 102.89 01/09/2021 21:24:53 80.81,-128.57 102.88 1.61 45



Historial Predications of SNOs between METOP-A and NOAA-19
